Theta_e
303 304 304 304 304 304 305 305 305 305 305 305 305 305 305 305 305 305 305 305 306 306 306 305 306 305 306 306 307 307 307 308 309 311 317 323 324 323 321 318 315 315 317 322 320 314 320 325 323 323 324 327 333 339 345 350 351 352 354 355 355 355 355 356 356 351 349 352 352 353 352 354 355 353 352 352 353 352 351 351 349 349 348 346 345 344 344 343
303 304 304 304 304 304 304 305 305 305 305 305 305 305 305 305 305 305 305 306 306 306 306 306 306 306 306 306 306 307 308 309 310 312 320 324 322 322 323 320 315 315 317 322 321 314 319 325 325 323 325 331 336 340 345 350 350 351 353 354 355 356 353 350 350 348 345 349 352 351 351 352 353 352 352 353 354 352 352 351 349 349 348 347 345 343 343 343
304 304 304 304 304 304 304 304 305 305 305 305 305 305 305 305 306 307 307 307 307 307 308 307 307 306 306 306 306 307 308 310 312 316 322 324 322 321 321 321 316 314 317 320 321 317 316 322 326 324 326 333 338 341 346 349 350 350 352 354 355 353 351 347 347 347 345 348 351 351 350 351 352 352 352 352 352 352 352 351 349 349 348 347 344 343 343 344
304 304 304 304 304 304 304 304 305 305 305 305 305 305 305 307 309 309 309 308 308 309 310 310 309 307 307 306 306 308 309 314 318 320 323 324 324 322 321 321 316 314 317 321 321 318 316 321 326 324 327 332 335 341 345 348 350 350 351 354 353 350 351 351 348 348 346 346 350 350 349 350 351 352 351 351 354 354 352 351 350 348 348 346 344 343 343 344
304 304 304 304 304 305 305 305 305 305 305 305 305 305 306 308 309 309 309 309 309 309 309 310 309 309 308 306 306 307 311 318 324 322 322 323 323 323 321 320 317 314 318 323 321 317 317 321 325 325 326 330 332 336 341 346 349 349 350 352 351 349 351 351 347 347 347 346 348 349 349 350 351 351 351 351 356 356 352 352 351 349 348 345 343 343 343 345
305 305 305 305 305 305 305 305 305 305 305 305 306 306 306 309 309 309 309 308 308 308 308 309 311 310 308 307 306 307 311 319 322 319 321 322 322 324 322 320 317 314 318 323 321 317 317 320 324 326 326 329 332 333 336 342 346 347 348 348 350 350 351 351 348 347 347 346 347 348 349 349 350 351 351 351 353 353 351 353 352 349 348 344 341 342 344 345
305 305 305 305 305 305 305 306 306 306 306 306 306 306 306 309 309 308 308 308 308 307 309 312 313 313 312 309 307 308 312 315 317 316 319 322 322 323 323 320 317 314 318 323 320 317 318 321 324 326 328 330 332 332 334 338 341 345 346 344 346 347 348 349 348 348 347 346 346 347 348 349 351 352 351 350 350 350 351 352 352 349 348 344 341 342 343 344
306 306 305 305 305 305 305 306 306 306 306 306 306 306 306 308 309 309 309 309 308 308 311 312 311 312 313 312 309 310 311 312 316 319 319 321 322 322 323 321 318 315 318 323 321 318 319 322 324 326 329 332 332 332 334 337 338 341 343 343 343 343 344 344 344 345 345 346 346 346 347 348 350 351 350 351 350 350 351 352 352 350 348 345 342 342 343 345
306 307 306 306 305 305 306 306 306 306 306 306 306 306 306 307 308 309 309 309 308 310 312 311 310 309 310 313 312 311 312 313 317 320 321 322 322 322 323 321 319 316 317 322 323 320 320 321 322 324 328 331 332 333 334 338 340 339 341 342 341 341 342 342 342 342 343 345 346 346 347 347 348 349 350 351 351 351 351 352 351 350 348 346 344 343 343 345
307 307 307 307 306 306 306 306 306 306 306 306 306 306 306 306 308 309 309 309 308 310 313 311 312 311 308 313 314 312 314 319 318 319 320 320 321 322 322 321 319 317 316 321 324 322 320 320 319 322 326 329 332 333 334 337 339 338 339 340 339 339 340 340 341 341 342 344 345 347 347 346 346 349 350 349 351 352 352 352 351 350 349 347 346 344 344 345
308 308 308 307 307 306 306 306 306 306 306 306 306 307 306 306 308 308 309 308 307 311 313 312 314 312 308 311 314 313 314 320 320 319 318 316 317 320 322 322 319 318 317 319 322 322 320 319 318 320 324 328 331 332 332 335 336 336 336 336 336 337 338 338 340 340 341 343 344 346 346 344 345 348 349 348 351 352 352 352 351 350 349 348 347 345 345 346
309 309 308 308 308 307 306 306 306 306 306 306 306 306 306 307 307 308 308 307 308 312 314 314 315 311 308 312 315 314 311 315 317 317 317 314 314 319 323 321 318 318 317 318 319 319 320 319 318 320 322 326 329 329 330 332 333 332 333 335 335 335 337 337 339 339 340 342 343 344 345 346 346 346 347 348 351 352 352 351 351 350 350 349 348 347 346 346
309 310 310 309 309 308 307 306 306 306 306 306 306 306 306 307 307 307 307 307 310 314 316 315 313 310 312 315 315 314 313 313 314 316 318 317 314 318 322 320 318 318 317 318 317 317 320 321 319 319 322 325 327 326 327 328 330 332 331 333 335 336 338 338 338 339 340 341 342 344 344 347 348 345 347 350 351 352 351 351 351 350 350 349 349 348 347 347
307 309 310 310 309 308 307 307 306 306 305 305 306 306 306 306 307 307 306 309 312 314 314 312 312 313 315 317 316 318 318 316 317 318 319 317 315 319 322 320 318 317 317 317 317 317 319 323 323 321 323 325 325 325 326 326 330 334 333 333 334 336 341 340 337 338 340 341 342 344 343 347 348 344 348 351 351 352 351 351 351 350 350 349 349 348 348 347
306 307 309 310 310 309 308 307 306 305 305 305 305 306 306 307 307 306 308 312 313 312 311 313 314 316 317 317 317 319 319 318 319 318 317 316 316 320 323 320 318 317 317 316 317 317 317 321 325 325 324 325 324 325 327 328 331 334 334 336 337 336 339 339 336 337 341 342 342 345 344 346 346 345 350 351 351 352 351 351 351 350 350 350 350 349 348 348
306 307 308 310 310 309 307 306 306 305 305 305 306 306 306 307 306 307 311 312 311 312 315 316 315 317 321 318 314 315 316 316 316 317 318 316 315 319 323 322 318 316 316 316 318 318 317 319 323 325 324 324 325 325 326 328 331 333 333 334 335 337 337 337 336 335 338 344 344 344 347 349 348 347 350 351 351 352 351 351 351 350 350 350 350 349 349 349
306 307 308 310 311 310 307 306 305 305 305 305 306 306 306 307 306 309 313 310 310 316 318 315 314 319 321 316 312 313 313 314 316 318 318 316 315 318 322 324 320 316 316 317 318 318 318 319 320 322 323 323 325 327 326 326 328 331 330 330 332 335 335 335 336 334 337 344 346 344 346 351 350 347 350 352 351 351 351 351 351 350 350 350 350 349 349 349
306 307 308 309 311 310 307 305 305 305 305 305 305 306 306 307 309 313 312 308 311 317 318 314 314 319 317 312 312 311 311 312 316 319 317 316 316 318 321 325 323 318 317 319 319 318 318 318 319 320 321 322 324 325 326 327 329 329 329 328 329 331 331 332 334 335 339 345 347 346 345 347 347 347 350 351 351 351 351 351 351 350 350 349 349 349 348 349
306 307 307 309 311 310 307 305 305 304 305 305 305 306 307 307 310 313 310 307 310 312 314 312 311 314 312 311 312 310 311 311 314 317 316 317 318 319 321 324 325 322 320 320 319 318 318 318 319 318 319 321 322 323 325 329 332 332 331 330 329 329 329 331 332 334 341 346 346 346 345 346 346 348 350 350 351 351 351 351 350 350 350 349 349 349 349 349
306 307 308 309 311 309 306 305 305 305 305 306 306 306 309 309 310 311 308 307 308 307 310 310 309 310 310 311 311 310 312 312 313 314 314 317 318 319 322 324 325 323 320 319 320 319 318 319 319 317 317 319 321 323 325 328 330 329 329 329 330 329 329 332 332 331 338 345 346 345 345 345 345 348 350 350 351 351 350 351 350 350 350 349 349 348 349 349
305 307 308 310 311 309 306 305 305 305 307 307 307 308 310 309 310 311 308 307 308 308 310 311 310 310 309 310 310 310 311 312 313 313 313 315 317 320 323 323 323 323 321 319 320 319 318 319 318 317 317 319 322 325 325 326 327 327 327 327 327 328 328 331 331 330 335 341 344 345 345 345 345 347 350 350 350 350 350 351 350 350 350 350 350 349 349 349
305 307 308 310 311 309 306 306 305 306 307 307 308 309 310 310 310 309 307 307 308 309 312 311 311 311 309 310 310 309 310 312 313 313 313 314 315 320 323 322 322 324 321 320 321 321 319 318 318 318 319 321 325 328 327 326 327 327 328 326 325 327 327 329 330 329 331 335 341 345 344 344 344 345 349 350 349 350 350 350 350 350 350 350 350 349 349 350
306 307 309 310 310 308 307 306 306 307 308 308 309 309 310 310 310 309 307 307 308 310 312 312 311 311 309 310 310 309 310 311 312 312 313 313 314 317 320 322 322 323 321 321 322 321 320 320 319 318 320 323 326 330 330 329 328 328 328 326 325 327 326 327 330 329 330 333 339 345 343 343 344 344 349 350 349 350 349 350 350 350 350 350 350 350 350 350
306 308 309 310 309 307 307 307 307 308 308 308 309 309 310 309 310 309 308 307 308 310 312 311 311 309 309 310 310 309 310 311 311 312 312 313 313 313 317 321 322 322 321 321 322 321 322 323 321 319 321 323 324 328 330 329 329 328 329 328 326 327 326 327 330 330 330 331 335 338 334 338 345 344 347 350 349 350 350 350 350 350 350 350 350 350 350 350
306 308 310 310 309 308 308 308 308 308 308 309 308 309 309 309 310 309 308 309 310 312 312 310 310 309 308 310 310 309 310 311 311 311 312 313 313 313 314 318 322 323 322 321 322 322 322 323 322 320 321 323 323 326 328 329 329 328 329 329 328 328 327 327 329 327 327 329 333 332 325 332 348 345 344 349 351 351 350 350 350 349 350 350 349 349 349 350
306 309 310 309 309 309 309 309 309 308 309 309 308 309 309 309 310 309 309 313 314 313 311 309 309 309 309 309 310 310 311 312 311 311 312 314 315 313 313 315 319 322 322 321 322 322 322 322 323 323 321 322 323 323 327 329 328 327 329 330 329 329 327 327 327 326 326 329 333 332 326 331 344 344 342 347 351 352 351 350 350 350 350 349 349 349 349 349
307 309 310 309 310 309 310 310 310 309 310 310 308 308 309 310 310 308 309 314 316 312 309 309 308 309 309 309 310 311 311 311 311 311 312 313 315 314 313 314 316 320 322 322 322 322 323 323 324 325 323 323 323 322 326 330 328 328 331 332 330 329 328 327 327 326 328 330 329 330 330 329 334 340 343 345 349 352 352 351 350 350 350 350 349 349 349 349
307 309 310 310 310 310 310 311 310 309 309 309 308 308 310 310 310 309 310 312 314 310 308 309 308 308 309 309 309 310 310 310 311 312 312 313 315 314 313 313 314 317 319 321 323 323 323 323 324 326 325 325 324 323 326 328 328 330 332 332 331 330 329 328 327 326 328 327 324 326 329 327 331 342 345 344 347 349 351 352 350 350 350 350 350 349 349 349
306 308 310 310 310 310 310 310 311 309 309 309 308 309 310 309 309 310 311 310 310 310 308 308 308 308 308 309 309 309 309 310 310 311 312 314 315 314 314 313 314 316 316 316 320 323 324 324 323 325 325 325 325 326 327 328 329 330 330 329 329 329 328 329 328 326 325 325 323 325 326 325 328 337 339 340 344 346 348 350 349 349 350 349 350 349 349 349
305 308 309 311 311 310 310 311 310 309 309 308 309 310 309 310 314 314 311 309 310 308 307 308 307 307 307 308 308 308 308 309 309 310 311 313 314 314 314 313 313 317 319 316 317 319 321 322 323 324 325 325 326 327 326 328 329 329 330 328 328 330 330 329 328 326 324 324 323 323 325 325 325 329 333 336 342 344 345 347 347 347 348 349 350 349 349 350
305 307 309 311 311 310 310 311 310 309 309 309 309 310 308 311 319 317 309 309 310 308 307 307 307 307 307 307 308 308 308 309 308 309 310 312 313 312 313 314 314 318 322 319 318 319 319 321 325 326 324 324 327 327 326 328 328 329 331 329 329 331 328 326 326 325 324 324 324 324 326 325 323 326 332 336 341 344 343 344 346 346 346 348 349 349 349 349
306 307 308 310 311 311 310 310 310 309 308 309 309 309 310 311 315 315 310 309 310 309 307 307 307 307 307 307 307 308 308 308 308 308 308 311 311 310 311 312 312 318 323 319 317 320 319 320 324 326 326 325 326 326 326 328 328 329 331 330 330 330 328 327 327 326 325 327 329 327 325 324 323 326 330 335 341 343 341 342 343 343 344 346 348 349 349 349
306 308 309 310 311 311 310 310 311 309 309 310 308 310 316 317 314 312 310 309 309 308 307 307 307 307 307 307 307 307 308 308 307 307 308 310 312 311 310 309 309 314 319 317 317 319 321 320 322 325 326 325 325 326 325 326 328 328 328 329 329 329 329 330 329 328 328 329 330 328 326 324 324 327 329 332 336 339 339 340 341 342 343 345 347 348 349 349
305 308 309 310 311 311 310 310 310 310 310 309 309 313 317 316 314 312 309 308 308 307 307 307 307 308 307 307 307 307 308 309 308 307 308 311 313 312 311 309 308 309 312 316 317 318 320 320 321 323 322 318 321 325 326 328 328 327 329 329 328 329 332 332 331 329 328 329 328 325 326 325 325 332 335 329 329 333 336 339 340 341 342 343 345 346 348 349
306 309 310 311 311 310 311 311 310 311 310 309 313 317 315 312 312 311 308 308 308 306 306 307 307 308 307 306 307 307 308 309 308 307 309 311 313 313 310 310 309 308 309 315 316 316 318 319 317 316 314 314 317 321 324 328 328 327 329 328 326 329 332 331 332 331 326 326 325 323 327 330 330 335 335 328 327 329 333 338 339 340 342 342 343 345 346 348
307 309 310 311 311 310 311 310 311 312 310 310 316 316 312 310 308 308 308 307 306 306 307 308 308 308 307 307 307 306 307 309 309 308 309 310 312 312 310 309 310 309 309 311 313 314 316 317 314 311 314 316 316 317 319 323 328 328 328 327 328 330 329 327 329 328 322 323 326 323 324 326 326 329 329 326 329 330 332 337 338 339 341 341 342 344 344 346
308 310 311 311 310 309 309 309 311 311 309 314 319 315 312 310 306 306 308 306 305 307 308 309 307 306 307 307 307 306 306 309 309 308 308 309 311 312 311 310 310 310 309 309 311 311 312 314 313 313 317 318 315 317 319 320 325 329 327 326 328 329 329 328 326 326 323 324 328 326 323 322 322 328 334 331 331 332 332 336 339 339 340 341 342 343 343 345
309 309 310 310 309 309 309 309 311 310 310 317 320 315 312 309 305 306 307 305 305 308 308 308 307 306 307 308 308 306 306 308 309 309 309 309 310 311 311 310 310 310 310 309 310 311 312 314 316 315 317 317 314 317 322 322 323 327 328 328 329 329 327 327 327 327 327 327 327 326 324 323 322 327 332 330 332 334 333 335 339 340 340 341 342 343 343 344
309 309 309 309 308 308 309 309 309 308 311 316 316 312 309 307 307 307 307 306 306 307 307 307 306 307 307 307 307 307 307 308 309 310 310 309 310 310 310 310 310 310 310 309 310 310 311 316 320 317 314 315 316 319 323 324 323 325 327 328 331 330 327 327 328 328 328 329 327 323 321 323 327 330 330 329 332 334 333 335 339 339 340 340 341 343 343 343
310 310 309 309 308 309 308 308 308 309 313 312 310 309 308 308 309 308 307 307 306 307 307 306 307 308 308 307 307 307 307 307 309 311 310 309 311 310 309 309 309 309 309 309 309 309 311 316 319 316 313 316 320 321 321 321 323 324 325 324 326 328 327 327 326 325 327 330 328 323 320 326 335 334 331 331 332 331 332 335 337 337 338 340 341 342 343 343
309 310 310 308 308 309 308 309 309 309 312 311 309 308 309 310 309 307 308 308 306 307 307 307 309 309 308 308 308 307 308 308 309 311 310 310 311 310 309 309 309 309 309 310 310 310 313 317 317 316 316 317 318 318 317 317 317 318 321 322 322 323 325 326 325 323 324 327 329 326 322 328 337 333 328 330 329 327 329 332 334 335 335 339 341 341 342 343
309 310 309 308 308 308 308 310 309 308 310 311 309 308 309 310 309 307 308 308 307 307 307 307 308 308 308 309 308 308 309 308 310 311 311 312 312 311 309 309 309 309 309 310 310 310 313 316 316 316 316 315 315 315 315 315 315 315 318 319 320 321 322 323 325 325 323 323 329 328 321 327 339 336 329 328 326 323 323 326 330 332 333 337 340 340 342 342
308 309 308 307 308 307 308 311 310 308 309 309 308 308 309 309 308 308 308 308 307 307 307 307 307 308 308 307 307 308 308 308 311 312 312 312 313 311 309 309 309 309 309 310 310 311 314 317 317 318 317 316 316 315 315 316 316 316 317 316 317 319 318 318 321 325 325 323 324 326 322 325 337 340 331 325 325 323 320 322 326 329 331 336 337 339 342 342
307 308 308 307 307 307 309 309 309 309 308 307 308 309 309 308 308 308 308 308 308 307 308 308 308 308 308 307 307 308 308 308 311 312 311 312 313 311 309 309 309 309 309 310 311 312 315 316 317 321 322 320 320 320 321 320 316 314 315 314 314 317 316 317 321 322 323 323 324 325 322 323 334 340 333 328 329 329 325 321 322 325 329 332 336 338 340 341
307 308 308 307 307 307 307 306 306 307 307 307 308 309 309 308 308 308 308 308 308 308 309 309 308 307 307 307 307 308 307 308 309 310 311 312 313 311 308 309 309 308 309 311 312 313 314 314 316 321 323 322 323 323 322 319 314 312 314 314 314 315 315 318 324 323 323 327 324 322 322 323 330 336 334 334 336 335 332 325 321 323 325 328 333 336 337 340
307 309 308 307 307 306 306 305 305 306 306 307 309 309 308 308 308 308 308 308 307 307 308 308 308 308 307 307 307 307 306 307 309 309 310 311 312 311 310 310 309 309 310 312 313 313 313 314 314 317 319 319 320 318 315 314 313 313 314 314 314 315 314 317 322 323 327 329 324 323 326 325 327 332 333 335 335 332 333 332 325 323 323 325 329 333 336 339
307 308 307 307 307 306 306 306 305 306 306 307 309 309 308 308 308 308 308 308 308 307 308 308 308 308 308 307 307 307 307 308 308 309 309 309 311 311 310 309 309 310 311 312 311 311 312 313 313 314 314 314 314 313 311 313 313 313 314 314 314 315 314 317 320 322 326 326 321 325 332 326 324 329 332 332 332 332 336 335 327 324 325 326 327 329 333 337
307 307 306 306 307 307 307 307 306 306 306 307 309 309 308 308 309 308 308 308 308 308 309 310 309 307 307 307 307 307 308 308 308 309 310 310 310 310 310 310 310 310 312 312 310 309 311 312 312 312 312 312 312 312 312 313 313 312 313 313 314 314 315 318 320 320 323 325 323 328 336 330 323 327 331 330 329 328 328 327 324 324 326 327 325 325 329 335
307 307 306 307 307 307 307 307 306 306 307 308 309 309 308 308 308 308 308 308 308 307 308 309 309 307 307 307 307 307 307 308 308 309 309 309 308 309 310 311 311 311 312 312 310 309 311 312 312 312 312 312 312 312 312 312 312 313 313 313 314 316 320 325 327 325 324 324 323 326 331 329 325 333 340 339 336 333 330 330 331 331 329 327 326 324 326 334
307 307 307 307 307 307 307 307 306 306 307 308 309 309 308 308 308 308 308 308 308 308 307 308 307 307 307 307 307 307 307 307 308 308 307 307 308 308 309 311 312 312 312 311 310 310 310 312 312 311 313 314 312 313 314 313 313 313 313 314 317 322 329 334 334 332 329 326 325 326 326 326 329 338 344 346 344 344 345 343 343 343 338 330 327 326 328 334
307 308 308 307 308 308 308 307 306 306 308 308 308 308 308 307 308 308 308 308 308 308 307 307 307 307 307 307 307 307 307 307 307 307 307 307 307 307 308 310 312 313 312 310 310 310 310 311 311 311 314 316 314 315 316 313 313 315 315 318 322 326 331 335 337 337 335 335 336 329 324 329 338 344 347 347 347 349 350 347 347 348 346 337 330 331 333 336
307 308 308 307 308 308 308 307 306 307 308 308 308 308 307 307 308 308 308 308 308 307 307 307 307 307 307 308 308 308 307 307 307 307 307 307 307 307 307 307 309 311 312 311 311 310 310 311 311 311 315 317 315 314 314 315 320 324 323 321 324 325 326 330 335 336 334 336 339 334 331 337 343 347 351 351 348 348 348 347 347 349 350 345 336 334 336 338
Wind_Speed
22 22 22 23 22 22 22 22 22 22 22 22 22 22 22 22 22 24 24 23 22 19 19 19 18 17 15 15 16 16 17 17 16 19 22 15 11 15 16 15 19 21 22 24 25 27 27 23 21 18 18 19 15 16 19 12 7 7 3 2 3 2 3 3 3 3 2 3 6 12 14 11 7 8 12 10 10 17 14 7 13 6 4 16 17 29 40 38
23 23 23 23 23 23 23 23 23 22 22 22 22 22 22 22 22 23 24 24 23 20 18 17 18 18 16 15 15 15 17 17 18 22 16 7 7 9 17 18 20 25 26 27 27 30 31 28 24 19 21 18 12 14 15 12 10 7 2 2 4 3 4 4 3 4 2 3 7 11 14 12 11 15 16 9 8 15 9 7 13 12 14 18 22 36 39 40
23 23 23 23 23 23 23 23 23 22 22 22 22 22 22 22 22 22 23 24 23 20 18 17 18 18 17 16 15 15 16 17 21 20 10 8 13 10 16 21 23 28 27 26 26 28 30 31 28 22 22 15 10 15 13 11 9 7 4 2 6 5 5 8 8 9 5 6 9 10 12 10 14 20 18 9 8 11 8 10 14 18 23 24 31 39 39 41
23 22 22 22 23 22 22 22 22 22 22 22 21 21 22 22 21 21 22 22 22 20 18 17 17 17 16 15 14 13 14 15 14 7 2 3 11 13 17 21 26 30 27 24 24 26 27 29 29 25 21 12 10 15 11 12 9 6 7 4 4 3 5 10 10 12 9 6 11 12 9 8 16 21 18 14 9 4 10 19 20 24 29 32 38 40 41 42
23 22 22 22 22 22 22 21 22 22 22 22 21 22 22 21 21 21 21 21 22 21 19 18 17 17 15 15 14 12 10 6 2 3 3 4 5 11 19 22 26 31 28 25 26 28 28 29 28 23 16 8 10 11 9 18 13 5 9 9 8 4 3 8 7 9 8 6 10 12 8 9 16 16 18 19 10 7 18 26 25 28 32 35 42 42 42 41
23 23 22 22 22 21 21 21 21 22 22 22 21 22 22 21 20 20 21 21 22 23 21 18 17 16 14 14 14 12 7 2 3 4 3 3 4 7 20 26 26 31 30 26 28 29 28 30 27 20 11 4 10 9 9 21 16 5 8 11 14 12 9 11 8 9 7 4 9 11 11 15 15 10 18 23 15 11 18 25 25 27 30 35 43 44 43 43
24 24 23 22 22 22 22 21 21 22 21 21 21 22 22 21 20 20 21 21 23 23 19 16 15 14 13 13 13 10 10 9 6 10 10 6 4 3 17 30 28 31 32 29 31 31 29 32 27 20 11 4 9 10 8 17 18 8 6 9 13 14 16 19 14 15 12 7 9 10 11 16 15 9 16 23 19 10 11 22 25 26 30 36 43 45 44 44
25 25 24 23 23 23 23 22 22 22 22 21 21 21 21 21 21 21 22 22 24 20 14 12 14 15 14 12 11 10 12 12 7 9 9 9 10 6 13 30 32 33 35 32 33 33 31 33 28 21 11 4 8 10 8 11 13 11 11 10 9 12 17 18 15 16 15 13 9 9 9 16 20 13 14 21 18 11 13 22 25 26 31 37 42 44 44 42
26 26 26 24 24 24 24 23 23 23 23 22 22 22 21 22 21 21 22 23 24 16 9 11 15 19 17 12 10 9 10 9 6 6 4 6 10 7 10 28 35 35 36 33 32 31 31 32 31 23 11 9 9 9 12 8 6 13 17 12 8 12 14 14 14 15 14 14 12 8 7 15 20 13 9 18 18 14 17 23 26 30 34 37 41 43 45 43
27 27 27 26 26 25 25 25 23 23 23 23 23 22 22 22 21 21 22 24 24 14 9 11 16 21 21 14 5 3 6 6 5 3 2 2 3 5 7 25 36 36 37 35 32 32 32 31 33 25 11 12 11 8 14 10 6 10 14 13 15 18 17 16 16 17 14 13 15 12 7 11 18 13 5 14 21 20 22 26 29 32 35 38 40 42 44 43
28 28 28 27 27 26 26 25 24 24 23 23 23 23 22 22 22 22 23 24 22 14 12 14 18 23 25 14 5 4 5 5 5 5 8 9 6 4 5 25 36 36 38 37 35 34 31 29 31 24 6 7 10 6 11 13 10 11 10 9 15 16 16 17 15 19 14 8 16 17 8 5 11 12 6 15 26 26 28 30 32 34 36 38 39 41 42 42
30 29 28 28 27 27 27 26 25 24 24 24 23 23 23 22 23 23 23 23 19 14 14 16 21 27 24 14 11 6 6 8 10 11 14 13 9 5 4 24 37 35 36 37 36 34 31 26 29 25 7 5 8 3 7 15 15 15 10 7 10 8 10 13 12 17 11 7 16 17 5 3 8 9 10 22 30 30 31 33 34 35 36 37 39 39 40 41
32 31 30 29 28 28 28 27 25 25 25 24 23 24 24 23 24 23 22 20 16 13 14 19 25 25 16 10 9 8 7 9 9 9 11 12 8 4 3 21 37 36 33 34 35 35 31 25 29 28 12 7 8 3 3 8 13 12 7 5 7 5 8 9 10 13 10 8 14 14 3 6 7 9 16 27 32 32 31 32 34 34 35 36 38 39 39 40
33 32 32 30 29 28 28 27 26 26 25 24 24 24 24 24 23 22 20 16 13 14 19 23 22 17 10 7 9 12 7 2 3 6 6 8 4 4 4 17 34 37 33 31 28 31 31 22 25 25 13 8 5 1 3 2 4 4 4 4 3 2 5 5 6 9 7 8 17 17 4 7 6 8 21 30 34 34 30 30 33 33 34 36 38 39 39 40
34 34 33 31 29 28 28 27 26 26 25 25 25 23 24 23 20 20 15 11 14 18 19 17 14 12 10 8 10 13 10 4 5 7 6 9 4 5 6 14 30 36 33 27 18 22 28 21 20 19 10 10 6 4 3 3 2 1 4 4 3 4 6 6 4 9 8 6 17 16 4 7 5 8 24 31 35 35 30 30 32 33 34 35 38 38 39 40
35 35 34 32 29 28 28 27 26 25 25 26 26 24 24 21 18 15 9 11 16 15 12 13 16 11 5 8 12 15 15 10 11 8 4 7 4 6 6 10 22 31 30 23 10 10 23 20 15 16 9 6 4 1 1 3 4 2 3 4 2 5 6 7 3 9 11 5 11 13 4 4 3 11 26 30 34 33 28 29 31 34 35 36 37 38 38 39
35 35 34 32 29 28 28 27 25 25 26 27 26 23 21 18 16 8 6 16 15 9 10 14 20 8 2 16 18 20 24 16 11 6 3 7 5 8 9 11 17 26 26 20 9 4 18 19 9 9 8 4 3 4 2 4 4 3 2 4 3 5 5 4 4 6 10 6 7 11 8 5 4 12 24 29 34 31 26 28 31 33 34 36 37 37 38 39
36 35 33 32 30 27 26 24 23 24 26 26 26 22 16 14 12 2 8 21 14 6 8 15 20 4 2 22 23 24 31 19 8 5 4 5 4 11 13 12 14 22 21 14 10 7 14 15 7 3 3 4 4 6 7 6 6 4 4 3 3 4 5 4 3 3 6 7 8 10 10 9 4 9 21 29 33 30 28 30 32 33 34 35 36 37 38 40
36 36 34 32 30 27 24 22 22 23 23 24 25 19 11 13 8 2 13 22 12 6 5 10 15 3 5 22 25 27 27 13 5 2 1 5 3 12 13 11 14 20 16 8 7 11 12 7 5 5 6 10 10 10 9 3 4 6 5 4 4 4 5 5 4 3 4 5 7 9 11 11 6 8 16 25 32 30 28 28 29 31 32 33 35 37 38 41
36 36 35 33 28 25 21 19 21 21 20 22 25 17 13 18 9 2 21 20 10 10 6 7 10 2 10 22 25 28 19 9 11 7 4 6 3 14 14 12 13 15 11 7 5 10 13 5 6 11 12 12 10 8 7 3 1 3 3 3 4 5 5 5 3 4 4 4 7 9 11 12 9 9 14 23 28 23 21 23 25 28 31 33 36 37 39 43
37 36 35 33 27 22 18 17 19 17 17 21 23 20 17 19 8 6 21 17 13 15 7 8 6 5 19 23 21 28 18 11 18 18 11 6 2 11 14 12 10 7 6 8 7 7 11 7 11 15 9 7 6 7 7 6 7 4 1 2 4 5 5 6 4 3 2 3 5 7 9 11 9 9 13 20 20 17 21 24 25 30 32 34 37 39 41 41
37 36 36 33 25 20 15 15 18 14 15 19 22 23 19 18 12 10 13 9 13 13 7 11 5 7 26 21 16 26 17 8 16 23 20 9 0 7 12 9 6 4 5 8 7 5 6 9 15 11 6 5 6 7 9 8 9 7 4 3 4 3 3 6 5 2 2 3 4 5 7 10 9 9 12 17 18 22 30 32 33 35 34 34 38 40 40 37
36 36 36 32 23 16 12 14 17 14 15 19 23 24 20 18 15 12 9 5 10 9 6 12 8 12 27 20 18 25 14 4 10 20 23 15 5 3 7 8 5 4 6 7 7 6 5 10 12 7 6 7 6 6 8 8 7 7 6 5 5 3 3 4 4 1 1 4 4 4 5 7 6 6 9 19 25 27 33 37 38 39 40 41 44 43 40 39
35 35 34 29 19 13 11 13 18 16 16 20 22 23 21 20 15 13 8 3 5 6 4 11 10 15 25 20 21 22 9 4 9 17 22 18 13 9 3 6 7 5 6 9 9 8 6 7 6 11 8 8 8 7 7 6 5 6 8 8 6 5 4 3 4 4 3 4 3 4 2 6 4 6 6 14 21 21 25 30 30 32 38 39 38 38 41 43
34 34 31 24 17 13 11 13 18 18 15 18 21 21 21 21 17 11 6 0 2 4 3 8 8 14 23 21 22 19 5 4 12 17 19 18 15 8 3 4 7 6 7 10 8 8 9 9 7 13 12 11 10 9 8 7 4 5 9 10 8 6 4 2 3 4 4 5 3 3 2 6 4 7 9 9 11 14 16 19 23 29 32 30 30 35 40 43
33 32 26 19 15 13 11 13 17 17 16 18 20 20 20 20 15 7 2 3 3 3 2 7 6 13 21 21 26 17 1 6 15 16 17 18 14 4 3 4 4 5 6 8 4 5 7 9 8 10 13 13 10 9 8 9 6 6 8 8 8 7 5 3 0 1 2 4 5 1 3 5 5 5 9 9 12 16 15 15 22 29 28 29 34 37 40 42
32 30 21 15 14 13 13 14 16 17 19 20 20 20 19 17 10 3 1 3 3 1 3 7 5 12 18 18 25 11 2 14 17 14 20 18 14 1 5 4 1 3 4 6 3 3 6 8 9 8 10 11 10 10 9 10 8 6 5 9 8 7 7 6 4 4 4 4 6 2 4 3 4 5 7 8 12 15 16 16 20 25 28 32 36 38 41 44
31 28 18 14 13 13 14 15 16 17 19 21 20 19 18 13 3 3 3 1 2 1 2 5 5 13 16 15 24 13 3 15 11 12 22 18 13 3 6 3 3 4 2 6 5 3 8 10 10 9 8 8 9 11 11 12 9 5 7 10 9 9 8 7 5 5 3 3 7 4 4 2 5 6 4 5 11 13 16 19 18 22 30 35 36 38 42 45
30 27 20 15 12 12 14 15 16 17 19 20 19 19 16 7 2 3 3 1 1 3 3 7 6 12 15 11 19 17 9 12 8 14 22 16 11 2 5 3 2 4 5 5 6 3 5 9 13 11 8 7 8 9 9 13 10 4 5 6 6 7 7 7 6 5 3 5 10 7 5 3 6 5 3 4 8 12 14 15 15 22 33 37 38 41 43 44
27 26 21 16 14 13 14 15 15 16 19 19 19 18 9 2 4 3 2 2 2 3 3 7 6 9 13 7 10 14 10 11 14 18 19 16 18 13 5 6 8 3 4 2 4 5 6 8 12 12 9 7 7 7 8 12 11 5 4 2 1 1 3 4 4 4 4 9 11 9 7 6 6 5 6 6 6 9 11 12 14 19 28 35 38 41 42 42
26 24 20 15 14 14 15 17 17 17 19 21 22 15 0 4 3 3 1 1 2 2 2 6 5 7 10 7 6 10 7 8 16 17 13 13 19 21 11 6 8 5 1 3 4 4 5 7 6 6 12 11 7 6 7 10 10 6 5 4 1 2 1 1 0 3 7 9 8 8 8 8 8 7 6 7 7 10 12 13 14 16 24 33 38 40 42 43
25 24 19 12 12 12 14 18 19 19 20 23 24 10 5 2 2 2 1 2 1 1 1 2 4 5 5 5 6 8 5 6 12 11 8 7 8 12 10 5 5 2 2 3 4 4 4 6 4 3 12 15 9 6 5 6 8 6 4 5 4 3 1 3 2 3 7 7 4 7 7 7 9 9 8 9 9 11 13 15 17 20 26 35 40 42 43 44
24 24 18 10 9 12 12 14 17 19 19 24 21 6 5 3 0 2 2 2 1 1 1 1 3 5 4 4 5 6 5 5 10 9 6 5 5 6 8 7 6 1 2 1 3 5 4 4 4 4 6 6 7 9 6 4 6 7 6 5 6 5 4 6 4 3 5 5 3 6 6 4 4 7 12 14 13 14 16 20 25 28 32 38 42 44 44 44
23 22 17 9 9 13 14 13 15 17 18 23 16 2 4 2 2 1 1 2 2 2 2 1 2 5 6 5 3 4 3 3 8 8 6 4 4 3 5 9 10 5 0 1 2 1 2 4 4 4 2 7 3 6 7 6 6 7 8 7 7 6 5 4 3 4 4 4 5 4 5 5 4 5 10 13 16 20 23 27 29 31 35 38 38 39 40 41
22 18 13 9 12 17 17 15 14 14 18 19 10 4 3 1 2 1 1 3 2 2 2 2 3 4 5 4 3 4 3 2 7 6 4 4 4 3 4 7 10 8 3 1 2 2 2 6 3 4 9 7 4 7 3 5 6 6 7 8 8 6 5 2 4 5 3 3 5 4 4 5 4 5 6 5 11 18 22 26 26 27 30 30 28 32 36 39
22 16 8 10 18 20 19 18 16 12 14 12 5 4 1 2 1 1 1 1 0 1 2 4 4 3 3 3 3 5 4 2 4 4 3 4 4 4 3 4 8 9 5 1 1 2 2 6 7 12 13 3 4 10 7 4 4 4 6 8 7 5 6 4 5 2 2 4 5 3 4 4 2 7 5 3 6 10 14 17 19 22 26 25 26 32 37 40
24 16 8 15 24 22 20 18 12 8 7 5 5 2 1 1 2 1 1 3 1 2 3 2 2 2 1 2 2 5 5 3 4 3 2 2 2 3 3 3 8 8 7 4 1 1 1 6 8 8 7 6 13 15 10 8 5 5 5 7 5 5 5 5 5 3 4 6 4 2 5 4 4 6 4 5 7 9 11 12 14 17 19 22 28 34 39 42
23 13 9 21 26 19 17 14 4 2 1 4 4 3 1 2 5 5 5 5 1 3 4 2 0 2 1 1 1 4 4 2 3 3 2 2 1 3 3 2 6 8 11 9 2 1 0 4 6 2 3 9 16 11 6 8 9 5 3 7 6 3 6 6 5 5 6 5 4 3 4 4 6 6 4 7 10 10 11 11 12 12 14 21 28 34 38 41
20 8 10 25 24 14 13 10 4 5 5 4 3 3 2 2 6 10 11 7 1 3 3 1 1 2 2 2 1 2 2 1 2 2 1 1 0 3 5 2 3 7 12 10 2 2 1 1 4 2 4 9 8 2 2 4 7 5 2 6 5 4 6 6 4 4 4 4 3 3 2 4 6 6 7 10 11 11 11 10 10 11 16 24 29 32 35 38
18 6 9 26 23 11 9 6 6 8 6 3 1 1 2 2 7 15 16 9 2 2 2 1 1 2 0 1 0 1 1 1 0 1 0 1 1 2 5 3 3 6 10 10 3 3 1 1 3 5 6 6 3 2 2 2 2 1 2 3 3 3 3 3 3 3 4 4 3 3 4 5 5 5 9 12 12 12 13 12 11 13 20 27 31 33 35 37
16 5 10 27 24 12 7 5 7 7 3 2 2 1 4 5 6 13 18 13 5 3 2 3 2 2 1 1 1 1 1 1 0 2 1 0 1 0 3 5 4 5 6 6 3 2 2 1 1 5 5 3 5 5 2 3 4 1 2 3 3 4 2 4 5 3 4 5 4 3 5 6 5 4 8 11 11 11 13 13 12 15 24 30 32 36 37 38
13 4 12 28 25 14 8 7 6 5 3 2 4 3 5 7 6 9 15 14 8 5 5 3 2 1 1 0 1 1 1 1 1 1 1 1 2 2 2 7 6 5 4 3 4 4 3 1 2 5 4 7 15 16 10 9 8 5 5 3 4 5 0 3 5 4 4 4 3 3 5 7 5 6 8 9 10 11 14 14 12 16 26 31 33 38 39 40
12 6 14 27 24 13 8 7 5 4 3 4 5 4 5 6 6 7 10 11 7 5 5 3 2 2 1 1 1 1 1 0 1 2 1 2 2 3 1 4 5 4 3 2 3 5 4 2 2 4 4 7 13 11 4 4 3 2 2 3 4 4 3 3 5 4 4 4 4 4 8 8 5 4 6 8 7 7 12 16 16 18 25 29 33 36 38 40
11 8 14 25 24 12 7 4 3 2 4 6 4 5 8 6 7 7 5 6 7 4 2 2 3 3 2 2 2 0 1 0 1 1 1 1 2 3 4 1 3 2 2 3 3 5 4 1 0 2 3 4 5 2 1 3 4 2 2 4 4 6 8 7 5 3 3 6 8 7 9 8 4 2 3 5 6 5 7 12 16 18 21 26 30 33 36 39
9 5 9 21 26 21 12 5 2 1 3 5 3 5 7 6 7 9 5 5 8 5 1 2 4 4 3 4 3 2 1 1 1 1 1 0 2 4 5 3 1 0 4 7 7 5 3 2 0 1 2 3 4 3 2 2 5 4 5 7 7 7 9 6 2 1 4 6 7 7 8 6 2 1 3 3 4 5 7 9 12 17 21 24 27 32 36 37
6 3 5 12 19 22 15 10 9 3 0 4 3 3 6 4 6 9 7 5 10 10 4 3 5 4 4 5 4 4 3 2 2 1 1 2 3 3 6 6 4 3 6 8 7 5 2 2 3 4 4 4 4 2 1 3 6 7 10 14 11 8 6 3 1 2 3 3 4 7 8 8 7 6 5 5 5 7 8 7 9 16 22 24 26 32 37 39
4 2 3 5 8 12 11 12 15 8 3 4 1 2 6 5 4 7 6 4 9 11 5 2 4 4 3 5 4 3 3 2 1 2 3 4 3 3 5 8 6 5 5 4 5 4 2 3 4 7 8 7 7 7 6 6 8 9 12 16 15 13 9 5 6 6 3 2 5 5 4 10 13 10 8 8 8 8 7 8 12 18 23 26 28 31 35 40
4 2 3 4 3 3 4 7 11 9 6 4 1 1 6 6 5 5 4 4 7 7 3 1 3 3 2 3 2 3 4 3 3 3 3 3 3 3 4 4 5 4 3 2 4 2 2 3 3 6 8 8 9 9 8 7 9 10 11 14 15 14 12 10 11 11 7 5 6 5 5 12 14 8 4 5 6 8 10 13 18 22 24 28 30 31 34 38
5 3 3 5 3 2 3 7 9 6 5 5 2 3 4 6 6 4 3 4 5 4 2 1 3 5 5 4 2 2 3 2 4 3 2 3 3 3 3 3 3 3 3 1 2 1 2 3 5 6 8 9 9 9 9 9 9 9 11 14 14 13 14 13 13 13 12 11 9 12 14 15 9 4 4 5 5 6 9 12 15 18 22 25 28 31 35 37
5 2 3 4 3 4 5 6 6 4 4 4 2 2 3 5 6 5 3 4 4 2 1 2 6 6 6 5 3 4 5 5 6 5 3 3 3 2 2 3 3 3 2 0 1 2 3 3 4 4 4 6 8 8 8 7 7 9 12 13 11 10 11 10 9 9 9 10 10 14 16 13 5 5 6 6 7 8 6 9 13 16 18 21 26 29 32 35
5 4 4 3 2 3 3 3 3 2 2 2 2 3 4 5 6 6 5 5 6 4 2 4 7 7 6 7 5 7 10 8 9 11 11 11 10 8 6 5 4 3 2 3 2 1 2 3 4 2 2 4 4 4 4 6 7 9 10 9 7 6 8 8 4 4 4 5 6 8 9 7 7 8 8 7 9 10 8 11 15 20 21 16 23 27 29 33
6 7 5 1 1 2 2 2 1 1 1 2 4 5 5 5 7 7 5 4 5 7 8 8 8 6 5 7 7 10 14 14 17 22 24 23 22 20 19 17 12 8 5 4 2 2 3 2 4 2 2 3 2 0 4 6 5 5 5 2 4 4 7 9 6 9 8 5 4 5 5 5 8 8 6 7 8 9 8 12 16 21 25 19 18 23 26 32
Wind_Direction
4 2 360 357 356 354 352 351 349 348 347 347 346 344 342 339 337 335 334 334 336 336 331 324 319 314 306 299 293 291 291 287 283 271 263 266 268 245 231 212 203 203 191 187 190 184 177 175 172 166 170 178 188 195 190 191 195 194 202 231 238 228 218 213 197 206 182 151 151 172 168 142 146 157 146 136 128 145 153 151 159 166 172 165 165 164 163 163
2 0 358 356 354 352 351 349 348 347 346 347 345 343 340 338 336 333 332 332 334 339 337 327 320 314 309 303 296 295 293 294 287 273 270 271 257 225 213 202 192 201 195 188 192 187 181 177 172 167 167 172 181 185 188 196 196 197 192 213 234 209 218 265 261 258 274 162 155 175 179 159 158 157 154 146 132 155 152 132 143 126 132 151 158 162 163 164
1 358 356 354 352 351 350 349 348 347 348 347 345 342 338 337 336 333 331 330 335 343 341 332 322 316 311 306 301 300 298 300 292 280 287 258 231 201 197 196 189 198 199 195 196 194 192 184 178 171 165 167 174 176 183 196 196 211 219 231 241 232 265 288 267 259 280 166 155 171 186 171 163 160 159 153 144 169 167 148 147 135 141 151 157 162 164 165
359 357 355 353 351 350 349 348 348 348 349 348 345 341 337 336 335 333 332 332 338 344 343 335 326 321 314 310 306 303 308 307 297 288 10 230 222 206 196 191 193 196 195 196 195 194 195 185 180 173 165 166 178 177 184 196 182 184 208 217 241 229 243 265 260 262 273 193 166 166 178 169 165 165 160 149 138 194 194 178 175 162 157 157 160 165 166 167
358 356 354 352 349 348 347 348 349 349 350 348 345 341 337 336 335 334 335 335 338 340 338 333 329 326 318 313 307 305 320 324 352 64 77 115 173 203 197 191 196 195 190 191 189 188 190 183 177 169 164 162 171 181 204 201 186 182 225 234 248 265 244 264 283 286 276 199 165 158 172 168 163 169 166 160 158 211 201 190 186 175 167 164 165 166 168 170
359 357 355 352 348 346 346 347 348 349 349 347 345 341 337 335 335 335 334 336 336 334 334 331 328 327 322 316 307 304 296 224 63 1 276 164 139 184 193 192 194 193 188 187 185 185 186 177 170 164 163 158 170 190 207 201 201 221 243 239 243 251 260 268 284 303 298 191 170 168 178 163 158 179 179 180 188 205 200 189 185 179 173 169 168 168 170 173
360 358 357 354 350 346 345 346 347 347 348 346 344 342 338 335 334 331 331 334 333 332 333 335 337 335 328 316 308 302 272 254 312 305 260 230 227 200 191 191 191 193 187 184 183 183 182 173 169 166 161 163 187 202 198 196 209 234 256 247 244 244 250 260 271 288 286 249 210 181 174 166 169 184 182 194 201 197 191 183 182 177 173 171 170 171 174 177
0 360 359 356 352 347 346 346 345 346 346 343 342 343 341 336 332 329 329 330 332 333 334 345 355 351 341 322 309 299 280 270 302 304 267 244 241 253 201 190 189 193 188 186 186 184 180 174 173 170 163 188 189 200 194 185 209 229 243 246 252 250 255 269 280 283 273 259 234 182 184 189 185 175 179 202 200 181 178 176 177 174 172 173 173 174 176 178
360 360 359 357 354 349 346 346 345 345 343 342 342 343 342 338 333 330 327 328 332 330 324 346 358 356 347 326 313 301 286 267 269 303 289 250 241 257 222 194 191 193 190 188 188 186 180 175 179 177 175 192 179 192 195 187 208 218 233 248 268 264 269 284 284 280 270 251 225 187 219 215 192 174 189 207 194 178 176 172 174 174 173 175 176 177 178 180
359 359 359 357 355 351 346 345 346 344 340 341 342 343 342 339 334 330 329 329 331 319 295 327 343 348 343 325 316 287 283 257 242 299 354 354 272 273 234 201 195 194 191 188 188 190 189 187 187 180 178 193 189 195 191 198 230 223 238 255 264 266 271 276 274 275 272 248 221 201 227 232 199 186 211 198 185 180 172 169 174 175 175 177 179 180 181 183
358 359 358 357 355 352 348 345 346 344 340 341 342 343 340 338 335 331 332 331 329 313 286 309 327 334 335 316 247 228 281 239 225 306 332 346 334 316 227 201 199 196 192 189 191 197 200 198 187 176 175 197 193 201 200 213 239 255 265 264 261 265 266 262 261 265 265 249 225 208 214 240 194 199 212 174 176 180 172 168 174 176 178 180 180 182 183 186
358 358 358 357 353 350 348 346 345 343 340 341 342 343 339 337 336 332 334 332 325 313 293 302 317 325 328 297 251 262 301 256 258 302 316 319 315 321 215 198 199 197 195 193 195 199 201 200 188 179 176 168 169 185 232 227 235 259 272 275 275 281 274 251 243 252 244 242 225 202 211 241 188 211 197 170 171 175 171 169 174 177 179 180 182 184 186 188
357 358 359 357 353 350 348 346 346 343 341 341 342 343 340 338 337 335 336 331 324 319 308 307 315 323 320 284 288 321 307 266 274 309 316 314 302 295 215 196 196 194 197 197 197 199 198 199 193 187 182 153 154 157 257 235 231 249 250 255 279 304 292 247 226 234 220 237 211 177 207 237 207 212 177 168 169 167 167 169 173 177 179 181 183 185 188 189
355 357 359 357 352 349 348 347 347 343 342 342 344 344 339 338 338 335 333 332 330 322 313 313 321 332 315 298 356 357 338 310 319 331 345 355 324 243 197 192 196 193 193 198 200 201 199 197 196 195 197 193 192 264 345 337 220 222 202 225 249 248 286 246 194 196 203 235 190 167 234 235 215 202 171 168 170 166 165 170 174 177 179 182 184 187 190 192
354 354 358 358 351 349 349 349 347 345 344 342 346 346 340 340 337 333 336 343 335 323 322 327 340 347 322 328 18 8 357 19 345 328 350 14 2 225 202 190 196 195 194 197 202 207 201 194 196 200 213 219 236 313 341 350 328 165 171 221 220 192 263 269 198 182 196 225 179 169 245 240 224 185 172 171 172 170 168 173 177 178 181 183 186 189 192 194
353 352 357 358 351 350 351 351 349 346 345 343 348 347 341 340 333 333 347 348 339 337 353 359 351 348 327 349 1 357 350 327 320 321 319 345 319 213 207 191 194 198 197 192 191 209 199 191 196 206 219 225 212 144 9 331 313 309 189 222 199 175 243 273 261 207 198 188 177 184 212 239 231 174 173 174 173 172 170 174 180 180 183 185 187 190 192 195
352 350 354 356 353 351 351 353 351 349 347 345 348 349 344 338 330 336 4 353 355 8 20 7 354 347 36 8 356 348 348 328 311 311 301 320 271 199 189 184 187 197 197 188 176 168 189 190 195 209 214 215 159 129 191 250 245 272 214 220 216 182 218 245 292 247 196 173 189 203 215 231 224 169 171 177 176 173 173 178 182 183 185 186 188 191 193 195
351 349 351 355 354 352 353 354 352 352 349 346 351 351 342 336 334 3 6 357 8 35 25 10 5 17 346 357 351 340 341 328 302 294 313 335 242 192 186 187 183 189 189 187 191 169 178 190 189 201 215 207 192 167 195 215 200 207 193 190 223 215 224 215 249 258 174 181 198 200 221 231 226 168 173 180 179 177 180 183 183 184 186 187 189 191 195 197
349 347 348 354 355 352 354 356 356 356 353 351 355 351 340 350 1 100 356 2 25 34 15 355 3 66 280 332 341 342 341 337 334 290 353 18 189 179 181 197 184 173 167 172 203 181 170 175 173 196 216 203 206 200 197 195 145 167 179 175 185 211 248 234 234 247 153 181 215 201 217 224 203 178 180 182 183 184 185 183 183 186 187 188 191 194 197 199
348 345 346 352 354 352 355 359 359 1 3 2 1 2 5 5 19 347 347 1 21 352 328 329 340 317 316 330 345 353 356 25 37 39 41 18 161 168 172 181 168 159 157 158 184 181 172 166 197 209 215 206 207 198 191 244 260 150 161 191 195 205 252 253 245 260 160 161 234 216 218 224 200 187 187 182 184 187 184 183 185 187 188 190 193 196 199 203
348 344 345 350 354 353 356 1 3 8 18 15 15 30 33 15 15 322 338 347 349 346 346 351 327 309 346 344 348 357 359 24 34 36 32 4 169 168 174 169 154 159 174 153 135 166 173 193 222 215 207 192 191 175 172 229 258 265 230 224 248 228 246 262 248 258 171 159 254 234 224 234 209 187 189 181 183 189 187 187 189 190 191 193 195 198 201 203
348 344 344 350 354 356 0 6 9 16 25 25 30 39 36 18 6 330 330 319 330 352 23 11 349 331 355 356 352 355 349 349 16 21 21 14 301 184 183 177 174 177 166 147 132 158 187 223 228 209 163 165 176 164 168 199 230 249 255 242 262 240 252 276 259 247 176 183 259 237 220 239 221 191 188 181 186 196 194 192 192 191 191 194 198 200 200 201
346 343 345 350 357 4 8 14 17 21 23 26 31 28 19 10 358 334 328 282 308 338 33 24 21 355 0 5 355 351 346 340 357 2 11 17 355 242 194 188 187 170 164 172 173 170 192 237 227 180 145 182 189 172 171 184 210 225 232 234 242 216 200 264 276 299 221 215 235 207 214 251 230 191 195 193 194 198 198 198 198 194 193 196 200 199 198 198
345 344 346 352 1 14 17 21 22 22 21 22 23 15 5 359 348 327 323 258 292 322 31 26 22 8 3 2 353 347 335 335 348 352 6 11 351 329 266 199 185 191 189 184 194 196 227 261 194 154 170 196 198 196 179 180 212 220 221 227 226 209 206 244 300 331 330 285 237 158 226 287 228 189 208 204 201 203 203 202 204 202 201 201 200 199 199 200
346 345 349 355 7 18 18 20 19 17 16 16 15 6 358 352 339 319 321 354 309 314 34 24 16 11 4 1 356 347 306 329 354 352 2 9 351 330 290 217 192 210 198 177 196 214 242 257 163 155 182 193 202 211 192 184 207 238 226 222 213 202 205 245 323 342 351 310 272 149 217 283 260 205 207 196 198 209 206 202 208 209 206 202 200 201 203 204
346 347 353 358 5 11 10 12 8 6 5 5 5 359 353 346 331 306 349 63 347 302 18 10 2 8 6 4 356 350 257 331 344 353 7 13 360 325 251 292 214 214 190 169 205 214 227 231 174 170 189 183 200 218 199 181 198 245 221 199 195 182 175 173 95 278 239 259 269 153 185 261 303 245 215 192 191 203 201 202 210 210 204 200 202 203 203 205
347 347 354 355 356 359 1 4 357 358 2 354 352 352 346 341 327 262 114 34 348 319 19 357 356 10 9 10 7 20 150 328 335 3 12 9 3 23 197 298 274 226 166 155 232 203 189 209 183 182 192 183 198 212 196 177 196 238 174 150 175 184 188 187 175 219 238 269 274 222 152 237 287 259 225 191 197 206 201 205 211 207 204 204 205 205 204 205
348 346 349 348 348 350 352 354 349 356 358 345 343 346 340 337 316 160 96 31 340 34 23 350 8 13 11 23 25 42 46 347 344 354 3 10 11 49 182 271 234 251 248 184 231 202 173 200 186 178 196 197 204 207 191 183 206 229 152 149 172 185 196 191 184 222 245 293 271 235 148 226 270 266 253 184 201 216 208 209 211 204 205 207 207 207 207 208
349 343 341 338 336 337 339 343 346 351 349 342 342 341 333 330 164 115 72 168 18 42 9 357 7 4 4 27 29 25 17 13 353 334 357 17 18 79 169 1 15 274 286 207 222 242 203 204 183 180 207 205 207 212 185 188 211 202 153 157 156 173 190 184 186 203 210 244 251 233 163 210 266 261 247 191 201 218 214 213 213 206 206 208 207 208 209 209
348 340 335 330 328 328 327 332 340 343 343 343 342 337 333 122 129 86 54 201 48 17 341 12 7 349 2 29 23 11 11 5 348 347 1 15 27 52 87 13 24 349 293 231 220 247 279 242 192 189 211 192 188 208 184 192 205 165 153 193 78 140 159 169 178 156 201 242 241 225 178 187 258 244 211 213 198 199 209 216 216 211 210 210 210 210 210 209
347 336 330 327 327 330 330 332 337 340 344 344 339 337 111 132 80 105 175 213 65 358 337 18 6 354 16 46 27 1 6 355 350 360 6 8 28 36 30 7 7 358 302 329 292 258 285 258 218 203 204 184 170 203 198 198 202 180 170 174 216 305 57 122 67 147 214 241 231 213 182 182 237 244 213 221 207 192 204 213 210 209 211 211 212 212 210 210
346 334 328 324 322 332 339 336 333 336 343 343 337 339 148 129 12 160 242 334 59 347 359 358 354 3 12 45 37 359 356 358 351 1 9 12 39 38 36 33 354 343 182 332 324 302 277 229 257 272 202 188 180 196 204 199 199 195 171 150 181 237 205 206 225 191 226 248 221 183 169 189 234 248 232 224 221 208 208 213 209 208 209 209 210 211 211 210
346 334 330 323 316 327 334 326 323 328 341 343 336 342 114 88 196 197 316 342 239 321 34 355 358 15 15 41 36 355 359 8 353 353 357 19 61 58 49 35 14 52 179 347 4 334 310 223 236 247 219 207 190 187 195 197 190 190 179 167 185 192 205 218 226 251 246 263 245 161 156 216 241 249 230 217 222 223 218 219 216 213 211 210 210 210 209 210
348 337 330 322 321 326 324 313 312 322 337 343 341 18 91 84 191 66 357 262 269 2 35 14 357 13 26 49 34 357 18 358 348 355 353 13 42 35 34 24 18 28 39 21 39 354 263 249 220 186 310 339 295 218 202 172 175 195 180 174 198 192 190 199 191 226 238 260 256 174 167 209 189 222 227 207 213 220 223 227 223 219 217 214 211 209 208 209
351 341 330 327 330 325 316 300 295 316 334 340 355 79 95 188 235 17 309 265 298 6 348 357 47 41 18 26 21 11 34 347 341 354 11 34 44 31 24 12 10 14 26 57 2 13 238 261 292 333 316 319 333 318 293 160 183 201 172 181 210 192 157 179 200 202 199 247 249 208 203 220 205 256 263 208 208 213 220 228 225 222 220 213 207 206 207 210
353 348 339 335 335 330 322 303 282 294 327 343 37 73 110 172 228 215 198 299 278 118 360 3 42 59 2 349 360 355 10 30 349 349 26 43 49 51 52 28 17 13 20 68 286 356 330 273 306 331 317 313 26 335 304 239 212 174 174 198 198 148 146 209 238 201 153 231 241 211 231 256 260 271 272 185 201 211 218 226 224 220 214 203 199 202 205 208
354 355 356 348 345 339 333 323 289 273 319 4 78 77 211 130 13 326 322 334 229 118 79 48 22 58 20 352 349 344 357 18 360 3 18 10 24 49 64 56 40 19 352 356 289 217 340 285 297 316 297 331 351 328 285 254 224 166 186 194 149 112 160 201 232 225 208 236 265 240 224 215 200 250 259 161 193 222 220 221 226 220 206 196 200 204 205 206
352 356 8 360 355 344 340 347 331 223 33 48 68 53 45 32 11 4 348 332 304 72 77 119 84 86 101 32 320 335 355 12 12 20 349 337 28 73 67 29 43 25 341 334 310 214 339 294 295 283 256 321 338 328 285 253 228 208 186 167 149 158 188 188 209 217 214 236 282 286 246 218 205 227 218 182 199 220 220 220 225 218 198 197 205 207 206 205
354 4 14 1 358 354 358 12 56 104 87 64 57 34 2 345 357 1 358 348 23 76 71 155 113 75 112 126 225 317 6 45 21 19 7 360 342 82 74 29 18 16 340 327 303 256 332 243 274 312 352 330 323 299 269 261 237 239 207 166 165 189 198 195 190 186 201 226 260 273 270 251 233 210 184 193 203 208 211 214 219 216 204 202 205 207 206 203
1 12 12 359 360 9 9 25 69 75 75 65 76 3 328 329 345 353 360 6 42 75 75 156 98 84 124 35 246 276 14 52 84 118 108 45 332 47 70 53 6 1 332 317 297 275 311 133 258 307 348 338 290 185 100 23 350 293 251 203 202 212 199 205 205 173 177 194 217 253 259 257 251 206 183 198 205 202 202 204 210 216 211 207 207 208 206 203
11 6 355 358 3 12 16 50 52 45 72 62 38 333 332 346 343 347 1 17 42 52 81 135 119 124 149 16 349 235 322 319 119 131 232 313 102 356 48 45 15 351 332 312 292 284 291 146 245 299 331 312 265 271 306 328 327 288 256 272 260 252 190 191 225 215 188 199 191 210 253 262 253 208 191 202 206 205 201 198 206 214 212 210 209 209 209 207
25 20 352 1 6 12 45 77 34 20 88 26 342 292 312 337 344 346 1 19 34 29 40 75 78 81 120 40 297 240 85 287 233 152 195 203 174 211 24 39 14 338 334 295 282 300 292 253 252 272 272 262 269 275 277 274 270 239 232 275 324 317 264 187 238 224 197 216 177 182 261 266 242 205 200 207 207 210 209 201 203 214 214 212 211 211 211 211
22 8 3 10 9 11 61 75 14 17 54 341 322 317 321 338 5 5 9 20 19 8 21 36 29 36 57 359 319 338 48 217 200 160 184 234 221 213 189 39 14 337 325 282 291 315 306 265 265 278 279 273 271 271 266 264 257 190 246 322 347 329 334 292 261 224 201 206 172 210 254 254 244 215 212 225 221 215 218 210 208 216 217 215 215 215 212 212
8 5 16 20 19 26 70 64 2 15 3 339 337 1 0 12 22 15 17 20 9 1 15 360 4 38 26 334 324 277 313 147 157 155 187 233 240 203 182 94 34 11 323 310 325 336 326 274 21 348 341 303 280 277 41 2 11 35 307 308 315 327 338 317 263 215 231 211 177 197 242 247 260 247 219 252 262 257 245 228 221 223 222 217 217 218 217 215
2 12 21 24 32 48 71 76 49 87 353 351 345 358 8 14 13 14 24 26 14 2 333 2 20 43 28 347 340 323 314 158 167 319 359 207 265 224 197 196 155 258 293 301 308 311 296 247 191 108 148 206 222 197 175 322 336 323 296 299 308 332 341 328 315 326 265 230 187 201 236 236 217 190 205 243 256 263 272 258 239 234 231 225 218 218 221 220
11 18 1 12 33 46 56 50 37 44 358 10 357 351 11 356 345 3 15 30 17 2 350 20 23 32 27 8 356 326 305 211 180 319 297 254 270 238 210 211 223 271 284 299 317 318 264 228 221 209 208 219 233 226 212 292 301 297 299 302 303 308 312 310 289 245 247 242 219 226 242 247 236 218 221 228 215 227 255 265 250 239 236 234 226 221 221 222
39 33 359 355 14 25 28 25 22 15 334 358 342 323 7 1 333 351 2 23 12 358 347 41 42 48 25 358 345 300 290 278 264 273 255 247 251 266 248 227 231 271 279 301 339 338 274 247 235 239 244 250 269 282 287 286 280 279 289 294 295 297 297 274 240 248 287 310 246 239 248 256 252 234 219 228 220 216 229 234 238 242 240 239 237 229 223 222
52 73 34 22 9 9 14 359 356 348 328 335 334 352 2 0 356 1 349 344 360 2 360 30 43 44 6 337 322 285 294 303 279 256 253 262 265 297 292 247 232 240 232 301 352 350 275 271 245 249 261 261 266 274 273 271 270 270 272 277 282 286 285 270 251 250 252 248 269 301 274 251 258 264 252 247 233 223 227 229 236 244 246 244 241 233 224 220
65 97 38 19 359 301 305 313 322 333 330 327 3 28 356 349 2 14 336 317 336 3 12 316 326 342 329 315 289 263 275 286 282 273 263 276 266 261 287 277 247 204 180 269 328 204 242 270 243 247 267 267 259 262 265 262 263 268 266 263 266 274 279 273 257 243 235 237 263 287 276 261 269 315 315 292 283 263 259 263 265 264 258 250 243 234 225 217
47 55 347 350 319 289 300 310 317 337 341 337 1 358 333 345 1 1 323 289 285 320 19 299 302 313 309 304 280 243 249 252 266 272 266 282 276 229 238 255 226 185 161 219 289 213 213 260 267 256 262 265 256 252 252 249 254 270 271 264 267 285 298 290 266 250 243 239 246 259 265 269 297 345 323 323 3 12 344 327 321 309 287 258 238 230 222 210
9 353 329 316 303 306 311 313 320 334 340 339 353 349 343 347 358 353 314 262 246 250 262 285 301 307 302 301 283 263 269 264 263 271 273 274 265 246 241 232 190 164 180 208 221 186 195 270 306 313 270 270 247 220 253 276 275 269 266 271 288 319 333 329 327 334 306 268 263 262 260 275 312 328 323 337 22 35 21 356 342 336 328 285 236 223 213 202
345 342 335 297 278 332 327 310 323 353 334 311 329 344 334 317 336 346 325 271 246 264 268 266 279 295 302 294 284 287 294 291 283 282 278 271 262 254 252 245 224 199 181 182 200 185 175 251 288 273 261 274 247 277 305 294 276 241 222 271 341 348 340 333 352 11 355 318 282 267 257 293 313 323 335 349 18 34 21 3 352 343 339 316 253 223 208 200